Terug naar catalogus

CZ-6A DEB

ActiefPO
NORAD 54895·DEBRIS·🇨🇳 China

Gelanceerd Nov 11, 2022 vanaf Taiyuan Satellite Launch Center

Loading…

Volgende Passages (komende 24 uur)

TLE

VersSource: Space-Track

Epoch: Sep 13, 2026, 17:45 UTC

1 54895U 22151QG  26256.73961022  .00006413  00000-0  10107-2 0  9998
2 54895  98.6282 325.9656 0065334  13.0388 347.2488 14.71390531200459

Volg CZ-6A DEB in realtime met AllMySat

Download on the App Store